Time,TemperatureF,DewpointF,PressureIn,WindDirection,WindDirectionDegrees,WindSpeedMPH,WindSpeedGustMPH,Humidity,HourlyPrecipIn,Conditions,Clouds,dailyrainin,SoftwareType,DateUTC
2013-08-07 00:13:00,70.7,70.4,29.83,ESE,112,0.0,-999.0,99,-99.99,,,0.00,Acu-Link.com,2013-08-07 04:13:00,
2013-08-07 00:28:00,70.7,70.4,29.83,SW,225,0.0,-999.0,99,-99.99,,,0.00,Acu-Link.com,2013-08-07 04:28:00,
2013-08-07 00:43:00,70.7,70.4,29.84,NE,45,0.0,-999.0,99,-99.99,,,0.00,Acu-Link.com,2013-08-07 04:43:00,
2013-08-07 00:58:00,70.7,70.4,29.84,ESE,112,0.0,-999.0,99,-99.99,,,0.00,Acu-Link.com,2013-08-07 04:58:00,
2013-08-07 01:13:00,70.7,70.4,29.84,SSW,202,0.0,-999.0,99,-99.99,,,0.00,Acu-Link.com,2013-08-07 05:13:00,
2013-08-07 01:28:00,70.7,70.4,29.83,ENE,67,0.0,-999.0,99,-99.99,,,0.00,Acu-Link.com,2013-08-07 05:28:00,
2013-08-07 01:43:00,70.9,70.6,29.82,ESE,112,0.0,-999.0,99,-99.99,,,0.00,Acu-Link.com,2013-08-07 05:43:00,
2013-08-07 01:58:00,70.7,70.4,29.83,ESE,112,0.0,-999.0,99,-99.99,,,0.00,Acu-Link.com,2013-08-07 05:58:00,
2013-08-07 02:13:00,70.7,70.4,29.83,ESE,112,0.0,-999.0,99,-99.99,,,0.00,Acu-Link.com,2013-08-07 06:13:00,
2013-08-07 02:28:00,70.7,70.4,29.82,SE,135,0.0,-999.0,99,-99.99,,,0.00,Acu-Link.com,2013-08-07 06:28:00,
2013-08-07 02:44:00,70.9,70.6,29.83,West,270,0.0,-999.0,99,-99.99,,,0.00,Acu-Link.com,2013-08-07 06:44:00,
2013-08-07 02:59:00,70.9,70.6,29.83,East,90,1.7,-999.0,99,-99.99,,,0.00,Acu-Link.com,2013-08-07 06:59:00,
2013-08-07 03:14:00,70.9,70.6,29.83,SSE,157,0.0,-999.0,99,-99.99,,,0.00,Acu-Link.com,2013-08-07 07:14:00,
2013-08-07 03:29:00,70.9,70.6,29.83,WNW,292,0.0,-999.0,99,-99.99,,,0.00,Acu-Link.com,2013-08-07 07:29:00,
2013-08-07 03:44:00,71.1,70.8,29.83,South,180,0.0,-999.0,99,-99.99,,,0.00,Acu-Link.com,2013-08-07 07:44:00,
2013-08-07 03:59:00,71.1,70.8,29.83,SSW,202,0.0,-999.0,99,-99.99,,,0.00,Acu-Link.com,2013-08-07 07:59:00,
2013-08-07 04:14:00,71.1,70.8,29.83,South,180,0.0,-999.0,99,-99.99,,,0.00,Acu-Link.com,2013-08-07 08:14:00,
2013-08-07 04:29:00,71.1,70.8,29.83,ESE,112,0.0,-999.0,99,-99.99,,,0.00,Acu-Link.com,2013-08-07 08:29:00,
2013-08-07 04:44:00,71.1,70.8,29.82,ESE,112,0.0,-999.0,99,-99.99,,,0.00,Acu-Link.com,2013-08-07 08:44:00,
2013-08-07 05:00:00,71.1,70.8,29.83,East,90,0.0,-999.0,99,-99.99,,,0.00,Acu-Link.com,2013-08-07 09:00:00,
2013-08-07 05:15:00,71.1,70.8,29.82,SE,135,0.0,-999.0,99,-99.99,,,0.00,Acu-Link.com,2013-08-07 09:15:00,
2013-08-07 05:30:00,71.1,70.8,29.82,NE,45,0.0,-999.0,99,-99.99,,,0.00,Acu-Link.com,2013-08-07 09:30:00,
2013-08-07 05:45:00,71.1,70.8,29.82,ESE,112,0.0,-999.0,99,-99.99,,,0.00,Acu-Link.com,2013-08-07 09:45:00,
2013-08-07 06:00:00,70.9,70.6,29.82,West,270,0.0,-999.0,99,-99.99,,,0.00,Acu-Link.com,2013-08-07 10:00:00,
2013-08-07 06:15:00,71.1,70.8,29.83,SW,225,1.7,-999.0,99,-99.99,,,0.00,Acu-Link.com,2013-08-07 10:15:00,
2013-08-07 06:30:00,71.1,70.8,29.84,West,270,0.0,-999.0,99,-99.99,,,0.00,Acu-Link.com,2013-08-07 10:30:00,
2013-08-07 06:45:00,71.1,70.8,29.84,West,270,0.0,-999.0,99,-99.99,,,0.00,Acu-Link.com,2013-08-07 10:45:00,
2013-08-07 07:00:00,71.2,70.9,29.85,West,270,0.0,-999.0,99,-99.99,,,0.00,Acu-Link.com,2013-08-07 11:00:00,
2013-08-07 07:16:00,71.2,70.9,29.85,ESE,112,1.7,-999.0,99,-99.99,,,0.01,Acu-Link.com,2013-08-07 11:16:00,
2013-08-07 07:31:00,71.6,71.3,29.85,ESE,112,2.2,-999.0,99,-99.99,,,0.01,Acu-Link.com,2013-08-07 11:31:00,
2013-08-07 07:46:00,72.0,71.7,29.86,ENE,67,0.0,-999.0,99,-99.99,,,0.01,Acu-Link.com,2013-08-07 11:46:00,
2013-08-07 08:01:00,72.3,72.0,29.86,WNW,292,0.0,-999.0,99,-99.99,,,0.01,Acu-Link.com,2013-08-07 12:01:00,
2013-08-07 08:16:00,72.9,72.6,29.85,ESE,112,0.0,-999.0,99,-99.99,,,0.01,Acu-Link.com,2013-08-07 12:16:00,
2013-08-07 08:31:00,73.2,72.9,29.86,WSW,247,1.7,-999.0,99,-99.99,,,0.01,Acu-Link.com,2013-08-07 12:31:00,
2013-08-07 08:46:00,74.1,73.8,29.86,SW,225,0.0,-999.0,99,-99.99,,,0.01,Acu-Link.com,2013-08-07 12:46:00,
2013-08-07 09:02:00,75.0,73.8,29.87,SSW,202,2.7,-999.0,96,-99.99,,,0.01,Acu-Link.com,2013-08-07 13:02:00,
2013-08-07 09:17:00,75.2,73.7,29.87,WSW,247,1.1,-999.0,95,-99.99,,,0.01,Acu-Link.com,2013-08-07 13:17:00,
2013-08-07 09:32:00,75.9,73.7,29.87,WSW,247,0.0,-999.0,93,-99.99,,,0.01,Acu-Link.com,2013-08-07 13:32:00,
2013-08-07 09:47:00,76.5,74.3,29.88,SSW,202,0.0,-999.0,93,-99.99,,,0.01,Acu-Link.com,2013-08-07 13:47:00,
2013-08-07 10:02:00,76.8,74.3,29.87,SE,135,2.7,-999.0,92,-99.99,,,0.01,Acu-Link.com,2013-08-07 14:02:00,
2013-08-07 10:17:00,76.5,74.6,29.88,South,180,1.7,-999.0,94,-99.99,,,0.01,Acu-Link.com,2013-08-07 14:17:00,
2013-08-07 10:32:00,76.6,74.7,29.89,WSW,247,0.0,-999.0,94,-99.99,,,0.01,Acu-Link.com,2013-08-07 14:32:00,
2013-08-07 10:47:00,77.0,75.5,29.89,SE,135,0.0,-999.0,95,-99.99,,,0.01,Acu-Link.com,2013-08-07 14:47:00,
2013-08-07 11:02:00,78.3,75.8,29.89,SSE,157,1.7,-999.0,92,-99.99,,,0.01,Acu-Link.com,2013-08-07 15:02:00,
2013-08-07 11:18:00,82.4,76.7,29.88,SSW,202,2.7,-999.0,83,-99.99,,,0.01,Acu-Link.com,2013-08-07 15:18:00,
2013-08-07 11:33:00,79.2,75.3,29.88,SE,135,0.0,-999.0,88,-99.99,,,0.01,Acu-Link.com,2013-08-07 15:33:00,
2013-08-07 11:48:00,79.3,75.1,29.88,SSW,202,2.2,-999.0,87,-99.99,,,0.01,Acu-Link.com,2013-08-07 15:48:00,
2013-08-07 12:03:00,80.6,75.3,29.88,NE,45,4.2,-999.0,84,-99.99,,,0.01,Acu-Link.com,2013-08-07 16:03:00,
2013-08-07 12:18:00,80.2,75.6,29.88,ESE,112,4.2,-999.0,86,-99.99,,,0.01,Acu-Link.com,2013-08-07 16:18:00,
2013-08-07 12:33:00,80.4,75.5,29.87,ESE,112,2.2,-999.0,85,-99.99,,,0.01,Acu-Link.com,2013-08-07 16:33:00,
2013-08-07 12:49:00,81.0,75.0,29.86,SSE,157,3.2,-999.0,82,-99.99,,,0.01,Acu-Link.com,2013-08-07 16:49:00,
2013-08-07 13:04:00,84.2,77.3,29.86,SSW,202,1.7,-999.0,80,-99.99,,,0.01,Acu-Link.com,2013-08-07 17:04:00,
2013-08-07 13:19:00,84.0,76.4,29.86,South,180,2.2,-999.0,78,-99.99,,,0.01,Acu-Link.com,2013-08-07 17:19:00,
2013-08-07 13:34:00,84.0,75.6,29.86,South,180,2.7,-999.0,76,-99.99,,,0.01,Acu-Link.com,2013-08-07 17:34:00,
2013-08-07 13:49:00,83.5,75.5,29.86,NNE,22,2.7,-999.0,77,-99.99,,,0.01,Acu-Link.com,2013-08-07 17:49:00,
2013-08-07 14:04:00,84.7,76.3,29.86,SSW,202,4.2,-999.0,76,-99.99,,,0.01,Acu-Link.com,2013-08-07 18:04:00,
2013-08-07 14:19:00,84.0,77.1,29.85,SW,225,1.1,-999.0,80,-99.99,,,0.01,Acu-Link.com,2013-08-07 18:19:00,
2013-08-07 14:34:00,82.9,75.7,29.85,NNE,22,0.0,-999.0,79,-99.99,,,0.01,Acu-Link.com,2013-08-07 18:34:00,
2013-08-07 14:49:00,84.2,76.2,29.84,West,270,2.2,-999.0,77,-99.99,,,0.01,Acu-Link.com,2013-08-07 18:49:00,
2013-08-07 15:05:00,84.4,76.4,29.83,NW,315,2.2,-999.0,77,-99.99,,,0.01,Acu-Link.com,2013-08-07 19:05:00,
2013-08-07 15:20:00,84.4,76.0,29.82,NNE,22,2.2,-999.0,76,-99.99,,,0.01,Acu-Link.com,2013-08-07 19:20:00,
2013-08-07 15:35:00,83.7,76.1,29.84,SW,225,2.7,-999.0,78,-99.99,,,0.01,Acu-Link.com,2013-08-07 19:35:00,
2013-08-07 15:50:00,87.6,78.3,29.83,NNE,22,0.0,-999.0,74,-99.99,,,0.01,Acu-Link.com,2013-08-07 19:50:00,
2013-08-07 16:05:00,87.1,78.2,29.83,SSW,202,1.1,-999.0,75,-99.99,,,0.01,Acu-Link.com,2013-08-07 20:05:00,
2013-08-07 16:20:00,85.6,77.1,29.83,North,0,1.1,-999.0,76,-99.99,,,0.01,Acu-Link.com,2013-08-07 20:20:00,
2013-08-07 16:35:00,85.5,77.0,29.82,SSE,157,0.0,-999.0,76,-99.99,,,0.01,Acu-Link.com,2013-08-07 20:35:00,
2013-08-07 16:50:00,84.7,77.4,29.82,NNE,22,1.1,-999.0,79,-99.99,,,0.01,Acu-Link.com,2013-08-07 20:50:00,
2013-08-07 17:05:00,83.8,76.2,29.81,South,180,2.2,-999.0,78,-99.99,,,0.01,Acu-Link.com,2013-08-07 21:05:00,
2013-08-07 17:21:00,82.6,74.6,29.81,NNW,337,1.7,-999.0,77,-99.99,,,0.01,Acu-Link.com,2013-08-07 21:21:00,
2013-08-07 17:36:00,81.3,73.4,29.82,SW,225,2.2,-999.0,77,-99.99,,,0.01,Acu-Link.com,2013-08-07 21:36:00,
2013-08-07 17:51:00,79.5,72.8,29.82,SSW,202,0.0,-999.0,80,-99.99,,,0.01,Acu-Link.com,2013-08-07 21:51:00,
2013-08-07 18:06:00,78.3,73.4,29.82,South,180,1.1,-999.0,85,-99.99,,,0.01,Acu-Link.com,2013-08-07 22:06:00,
2013-08-07 18:21:00,77.5,73.7,29.82,West,270,0.0,-999.0,88,-99.99,,,0.01,Acu-Link.com,2013-08-07 22:21:00,
2013-08-07 18:36:00,76.5,73.7,29.81,SE,135,0.0,-999.0,91,-99.99,,,0.01,Acu-Link.com,2013-08-07 22:36:00,
2013-08-07 18:51:00,75.7,72.6,29.80,East,90,0.0,-999.0,90,-99.99,,,0.01,Acu-Link.com,2013-08-07 22:51:00,
2013-08-07 19:07:00,75.6,72.5,29.81,ESE,112,0.0,-999.0,90,-99.99,,,0.01,Acu-Link.com,2013-08-07 23:07:00,
2013-08-07 19:22:00,75.2,72.4,29.81,East,90,0.0,-999.0,91,-99.99,,,0.01,Acu-Link.com,2013-08-07 23:22:00,
2013-08-07 19:37:00,74.8,72.3,29.80,SE,135,0.0,-999.0,92,-99.99,,,0.01,Acu-Link.com,2013-08-07 23:37:00,
2013-08-07 19:52:00,74.3,71.8,29.81,West,270,0.0,-999.0,92,-99.99,,,0.01,Acu-Link.com,2013-08-07 23:52:00,
2013-08-07 20:07:00,74.1,72.3,29.80,South,180,0.0,-999.0,94,-99.99,,,0.01,Acu-Link.com,2013-08-08 00:07:00,
2013-08-07 20:22:00,73.2,71.4,29.81,NNW,337,0.0,-999.0,94,-99.99,,,0.01,Acu-Link.com,2013-08-08 00:22:00,
2013-08-07 20:37:00,72.9,71.7,29.82,South,180,0.0,-999.0,96,-99.99,,,0.01,Acu-Link.com,2013-08-08 00:37:00,
2013-08-07 20:52:00,72.3,71.4,29.82,ESE,112,0.0,-999.0,97,-99.99,,,0.01,Acu-Link.com,2013-08-08 00:52:00,
2013-08-07 21:07:00,72.1,71.2,29.82,East,90,0.0,-999.0,97,-99.99,,,0.01,Acu-Link.com,2013-08-08 01:07:00,
2013-08-07 21:23:00,72.0,71.4,29.83,ESE,112,0.0,-999.0,98,-99.99,,,0.01,Acu-Link.com,2013-08-08 01:23:00,
2013-08-07 21:38:00,72.0,71.4,29.84,South,180,0.0,-999.0,98,-99.99,,,0.01,Acu-Link.com,2013-08-08 01:38:00,
2013-08-07 21:53:00,72.0,71.7,29.84,ENE,67,0.0,-999.0,99,-99.99,,,0.01,Acu-Link.com,2013-08-08 01:53:00,
2013-08-07 22:08:00,71.8,71.5,29.84,ESE,112,0.0,-999.0,99,-99.99,,,0.01,Acu-Link.com,2013-08-08 02:08:00,
2013-08-07 22:23:00,71.4,71.1,29.85,East,90,0.0,-999.0,99,-99.99,,,0.01,Acu-Link.com,2013-08-08 02:23:00,
2013-08-07 22:38:00,71.2,70.9,29.85,East,90,0.0,-999.0,99,-99.99,,,0.01,Acu-Link.com,2013-08-08 02:38:00,
2013-08-07 22:53:00,71.1,70.8,29.85,ESE,112,0.0,-999.0,99,-99.99,,,0.01,Acu-Link.com,2013-08-08 02:53:00,
2013-08-07 23:08:00,70.9,70.6,29.86,NW,315,0.0,-999.0,99,-99.99,,,0.01,Acu-Link.com,2013-08-08 03:08:00,
2013-08-07 23:23:00,70.7,70.4,29.86,SSE,157,0.0,-999.0,99,-99.99,,,0.01,Acu-Link.com,2013-08-08 03:23:00,
2013-08-07 23:39:00,70.5,70.2,29.86,SSE,157,0.0,-999.0,99,-99.99,,,0.01,Acu-Link.com,2013-08-08 03:39:00,
2013-08-07 23:54:00,70.3,70.0,29.86,ENE,67,0.0,-999.0,99,-99.99,,,0.01,Acu-Link.com,2013-08-08 03:54:00,